[[{"header":{"parameterUnit":"m.s-1","parameterCategory":1,"la1":30.2991,"la2":30.254,"lo1":-89.0895,"lo2":-89.0444,"dx":0.0017,"dy":0.0017,"nx":28,"ny":28,"refTime":"2022-12-29T15:00:00:Z","depth":0,"parameterNumber":2,"parameterNumberName":"U-component_of_WINDS"},"data":[0,0,0,0,0,0,0,0,0,0,0,0,0,0,0,0,0,0,0,0,0,0,0,0,0,0,0,0,0,0,0,0,0,0,0,0,0,0,0,0,0,0,0,0,0,0,0,0,0,0,0,0,0,0,0,0,0,0,-2.4989,-2.499,0,-2.5044,-2.5045,-2.5045,-2.5062,-2.5061,-2.5061,-2.5061,-2.5118,-2.512,-2.5122,0,0,0,0,0,0,0,0,0,0,0,0,0,-2.4898,-2.49,-2.4989,-2.499,-2.499,-2.5044,-2.5045,-2.5045,-2.5062,-2.5061,-2.5061,-2.5061,-2.5117,-2.512,-2.5122,0,0,0,0,0,0,0,0,0,0,0,0,0,-2.4944,-2.49,-2.4989,-2.5005,-2.5007,-2.5044,-2.5045,-2.5046,-2.5062,-2.5061,-2.5061,-2.506,-2.5117,-2.5119,-2.5122,-2.5147,0,0,-2.513,-2.5131,0,0,0,0,0,0,0,0,-2.4941,-2.4947,-2.5002,-2.5004,-2.5006,-2.5045,-2.5034,-2.508,-2.5062,-2.5041,-2.5061,-2.506,-2.5094,-2.5099,-2.511,-2.515,-2.5152,-2.513,-2.5132,-2.5133,-2.5134,0,0,0,0,0,0,0,-2.4938,-2.4945,-2.5011,-2.5003,-2.5005,-2.5009,-2.5015,-2.5042,-2.5069,-2.5043,-2.5044,-2.505,-2.5095,-2.5107,-2.5112,-2.5153,-2.513,-2.5133,-2.5134,-2.5135,-2.5216,-2.5216,0,0,0,0,0,0,-2.4932,-2.4942,-2.5009,-2.5012,-2.4972,-2.5011,-2.5018,-2.5033,-2.5069,-2.5074,-2.5051,-2.5051,-2.5103,-2.5108,-2.5114,-2.5145,-2.5133,-2.5136,-2.5137,-2.5215,-2.5216,-2.5216,0,0,0,0,0,0,-2.493,-2.4938,-2.5007,-2.4978,-2.4987,-2.5013,-2.503,-2.5035,-2.5047,-2.5075,-2.508,-2.5058,-2.5103,-2.511,-2.5138,-2.5147,-2.5137,-2.5139,-2.5214,-2.5215,-2.5216,-2.5207,0,0,0,0,0,0,-2.4927,-2.4937,-2.4947,-2.4978,-2.4988,-2.503,-2.5031,-2.5036,-2.5051,-2.5052,-2.5083,-2.5088,-2.5103,-2.5134,-2.5141,-2.515,-2.5142,-2.5214,-2.5215,-2.5216,-2.5207,-2.5208,-2.5208,0,0,0,0,0,-2.4924,-2.4943,-2.4947,-2.4955,-2.5001,-2.5031,-2.5037,-2.5054,-2.5052,-2.5062,-2.508,-2.5087,-2.5145,-2.5137,-2.5145,-2.5155,-2.5213,-2.5214,-2.5216,-2.5207,-2.5208,-2.5208,0,0,0,0,0,0,-2.4913,-2.4947,-2.4953,-2.4982,-2.5003,-2.5034,-2.5047,-2.5054,-2.5077,-2.5077,-2.5097,-2.5104,-2.5131,-2.5146,-2.5137,-2.5181,-2.5179,-2.5182,-2.517,-2.5171,-2.5172,-2.5167,-2.5144,0,0,0,0,0,-2.4913,-2.4935,-2.4964,-2.4987,-2.4997,-2.502,-2.5034,-2.5045,-2.5068,-2.5077,-2.5098,-2.512,-2.5143,-2.5158,-2.5181,-2.5209,-2.5216,-2.522,-2.5221,-2.5221,-2.5223,-2.5239,-2.5241,-2.522,-2.522,-2.522,0,0,-2.4915,-2.4937,-2.4949,-2.4985,-2.5003,-2.5024,-2.5028,-2.505,-2.5066,-2.5081,-2.5109,-2.5124,-2.5151,-2.5179,-2.5193,-2.5192,-2.5231,-2.5223,-2.5223,-2.5225,-2.524,-2.5242,-2.5244,-2.5221,-2.5221,-2.522,0,0,-2.493,-2.4948,-2.4969,-2.4987,-2.5013,-2.5029,-2.5033,-2.5063,-2.5073,-2.5102,-2.5113,-2.5132,-2.5172,-2.519,-2.5205,-2.5225,-2.5232,-2.5232,-2.5235,-2.525,-2.5252,-2.5253,-2.526,-2.5262,-2.5234,-2.5234,-2.5234,0,-2.4929,-2.4961,-2.4979,-2.5,-2.5016,-2.5029,-2.505,-2.5066,-2.51,-2.511,-2.5109,-2.5159,-2.5178,-2.521,-2.5215,-2.5226,-2.5232,-2.5228,-2.525,-2.5252,-2.5254,-2.526,-2.5263,-2.5234,-2.5234,-2.5234,-2.5234,0,-2.4958,-2.4981,-2.4994,-2.5025,-2.5042,-2.5063,-2.5083,-2.5098,-2.5108,-2.5123,-2.5151,-2.5174,-2.5202,-2.521,-2.522,-2.5244,-2.5243,-2.5246,-2.5245,-2.5255,-2.5261,-2.5264,-2.5233,-2.5234,-2.5234,-2.5234,0,0,-2.4967,-2.5006,-2.5011,-2.5025,-2.5055,-2.5073,-2.5095,-2.5121,-2.5133,-2.5156,-2.5174,-2.5207,-2.521,-2.5226,-2.5238,-2.5251,-2.5265,-2.5253,-2.5254,-2.5254,-2.5292,-2.5289,-2.5291,-2.527,-2.5271,-2.5271,-2.529,0,-2.4984,-2.5023,-2.5039,-2.507,-2.5091,-2.5104,-2.5123,-2.5143,-2.5158,-2.5178,-2.5194,-2.5217,-2.5219,-2.5229,-2.5243,-2.5261,-2.5273,-2.526,-2.5288,-2.5288,-2.528,-2.5295,-2.5292,-2.5308,-2.5292,-2.5293,-2.5293,0,-2.5009,-2.5031,-2.5064,-2.5091,-2.5101,-2.5117,-2.5142,-2.5161,-2.5185,-2.5195,-2.5213,-2.5224,-2.5247,-2.5245,-2.5277,-2.5267,-2.528,-2.5291,-2.5292,-2.5294,-2.5291,-2.5297,-2.5314,-2.5316,-2.5297,-2.5297,-2.5297,0,-2.5011,-2.5049,-2.5073,-2.5085,-2.5117,-2.5129,-2.5143,-2.5166,-2.5181,-2.5203,-2.5213,-2.5238,-2.5251,-2.527,-2.5288,-2.5284,-2.5318,-2.5317,-2.5327,-2.5326,-2.5333,-2.5332,-2.535,-2.5342,-2.5342,-2.5342,-2.5342,0,-2.5028,-2.5048,-2.5074,-2.5089,-2.5111,-2.513,-2.5151,-2.5167,-2.5187,-2.5205,-2.5219,-2.5235,-2.5258,-2.5278,-2.5292,-2.5316,-2.5322,-2.5331,-2.5334,-2.5329,-2.5328,-2.5337,-2.5336,-2.5342,-2.5342,-2.5342,-2.5342,0,-2.5033,-2.5052,-2.5079,-2.5108,-2.5115,-2.513,-2.5155,-2.517,-2.5185,-2.5208,-2.5214,-2.5238,-2.5262,-2.5282,-2.5314,-2.5323,-2.5348,-2.5352,-2.534,-2.5341,-2.5349,-2.5348,-2.5374,-2.5378,-2.5367,-2.5367,-2.5367,0,-2.5043,-2.5058,-2.5088,-2.51,-2.5114,-2.5135,-2.515,-2.5168,-2.5183,-2.5211,-2.5223,-2.5248,-2.5268,-2.5306,-2.5327,-2.5351,-2.5355,-2.5363,-2.5359,-2.5353,-2.5355,-2.5353,-2.5355,-2.5363,-2.5363,-2.5363,-2.5363,0,-2.5057,-2.5065,-2.5086,-2.5109,-2.5126,-2.5146,-2.5166,-2.5176,-2.5198,-2.5214,-2.5238,-2.5254,-2.5286,-2.5311,-2.5337,-2.5352,-2.5361,-2.5364,-2.5367,-2.5362,-2.5354,-2.5357,-2.534,-2.5363,-2.5363,-2.5363,-2.5363,-2.5363,-2.5064,-2.5078,-2.51,-2.5123,-2.514,-2.5158,-2.5173,-2.519,-2.521,-2.5237,-2.5247,-2.5272,-2.5295,-2.5331,-2.5346,-2.5366,-2.5367,-2.5372,-2.5373,-2.5374,-2.5373,-2.5351,-2.5371,-2.5371,-2.5371,-2.5371,-2.5371,0,-2.5078,-2.5093,-2.5114,-2.5141,-2.5158,-2.5165,-2.5187,-2.5201,-2.5223,-2.5243,-2.5263,-2.5291,-2.5315,-2.5337,-2.5362,-2.5373,-2.5378,-2.5379,-2.5378,-2.5381,-2.5371,-2.5365,-2.5375,-2.5375,-2.5375,-2.5375,-2.5375,-2.5375,-2.5087,-2.5111,-2.5122,-2.5153,-2.5169,-2.5193,-2.5205,-2.5222,-2.5238,-2.5268,-2.5287,-2.5302,-2.5323,-2.5349,-2.5371,-2.5377,-2.5386,-2.5385,-2.5392,-2.5383,-2.5382,-2.5381,-2.5376,-2.5387,-2.5387,-2.5401,-2.5401,-2.5401]},{"header":{"parameterUnit":"m.s-1","parameterCategory":1,"la1":30.2991,"la2":30.254,"lo1":-89.0895,"lo2":-89.0444,"dx":0.0017,"dy":0.0017,"nx":28,"ny":28,"refTime":"2022-12-29T15:00:00:Z","depth":0,"parameterNumber":3,"parameterNumberName":"V-component_of_WINDS"},"data":[0,0,0,0,0,0,0,0,0,0,0,0,0,0,0,0,0,0,0,0,0,0,0,0,0,0,0,0,0,0,0,0,0,0,0,0,0,0,0,0,0,0,0,0,0,0,0,0,0,0,0,0,0,0,0,0,0,0,3.3698,3.3699,0,3.3732,3.3733,3.3733,3.3732,3.3732,3.3731,3.3731,3.3766,3.3768,3.3769,0,0,0,0,0,0,0,0,0,0,0,0,0,3.3635,3.3636,3.3698,3.3699,3.3699,3.3732,3.3733,3.3733,3.3732,3.3732,3.3731,3.3731,3.3766,3.3767,3.3769,0,0,0,0,0,0,0,0,0,0,0,0,0,3.3665,3.3636,3.3698,3.3703,3.3703,3.3732,3.3733,3.3733,3.3732,3.3732,3.3731,3.373,3.3765,3.3767,3.3769,3.3796,0,0,3.3776,3.3777,0,0,0,0,0,0,0,0,3.3663,3.3667,3.3702,3.3702,3.3703,3.3727,3.3723,3.3754,3.3733,3.3721,3.3731,3.373,3.3754,3.3757,3.3765,3.3798,3.3799,3.3776,3.3777,3.3778,3.3779,0,0,0,0,0,0,0,3.3661,3.3666,3.3712,3.3702,3.3703,3.3704,3.3707,3.3729,3.3741,3.3722,3.3722,3.3726,3.3754,3.3763,3.3766,3.38,3.3776,3.3778,3.3779,3.378,3.3859,3.386,0,0,0,0,0,0,3.3658,3.3664,3.3711,3.3713,3.3681,3.3705,3.3709,3.372,3.3741,3.3743,3.3727,3.3726,3.376,3.3763,3.3767,3.3802,3.3778,3.378,3.3781,3.3858,3.3859,3.386,0,0,0,0,0,0,3.3656,3.3662,3.3709,3.3688,3.3694,3.3707,3.372,3.3721,3.373,3.3744,3.3747,3.3733,3.3759,3.3764,3.3789,3.3803,3.3781,3.3783,3.3857,3.3858,3.386,3.387,0,0,0,0,0,0,3.3655,3.3661,3.3671,3.3689,3.3696,3.3731,3.372,3.3722,3.3733,3.3733,3.3751,3.3753,3.3759,3.3786,3.3791,3.3805,3.3784,3.3856,3.3858,3.3859,3.3869,3.3872,3.3874,0,0,0,0,0,3.3652,3.3672,3.3672,3.3677,3.3708,3.3731,3.3735,3.3741,3.3734,3.3745,3.3755,3.3753,3.38,3.3789,3.3795,3.3809,3.3855,3.3857,3.3859,3.3868,3.3871,3.3874,0,0,0,0,0,0,3.3656,3.3675,3.3674,3.37,3.3714,3.3731,3.3745,3.3745,3.3761,3.376,3.3766,3.3771,3.3797,3.3805,3.3792,3.3838,3.3827,3.383,3.3831,3.3835,3.3838,3.3836,3.3786,0,0,0,0,0,3.366,3.3677,3.3692,3.3714,3.3721,3.3732,3.3742,3.3745,3.376,3.3766,3.3778,3.3793,3.3811,3.3823,3.3841,3.3869,3.3875,3.3882,3.3885,3.3887,3.3891,3.3909,3.3914,3.3867,3.3866,3.3866,0,0,3.3668,3.368,3.3691,3.3715,3.3726,3.3745,3.3737,3.3756,3.377,3.3769,3.3795,3.3804,3.3821,3.3849,3.3861,3.3857,3.3905,3.389,3.3891,3.3894,3.3912,3.3916,3.392,3.3868,3.3868,3.3867,0,0,3.3693,3.3703,3.3723,3.3735,3.3753,3.376,3.3765,3.3782,3.3788,3.3813,3.3814,3.3831,3.3862,3.3875,3.3885,3.3917,3.3917,3.3922,3.3937,3.3955,3.3959,3.3963,3.3976,3.3981,3.3925,3.3925,3.3925,0,3.3701,3.3729,3.3734,3.3754,3.3766,3.3766,3.3788,3.3799,3.3821,3.3829,3.3823,3.3864,3.3875,3.3907,3.3915,3.3923,3.393,3.3921,3.3958,3.3961,3.3965,3.3978,3.3983,3.3926,3.3926,3.3926,3.3926,0,3.3739,3.3758,3.3773,3.3795,3.3808,3.3829,3.3838,3.3851,3.3853,3.3862,3.3889,3.3902,3.3924,3.3931,3.3933,3.3965,3.3961,3.3956,3.3946,3.397,3.3983,3.3988,3.3927,3.3927,3.3926,3.3926,0,0,3.3767,3.3793,3.3799,3.381,3.383,3.3845,3.3866,3.3888,3.39,3.3915,3.3935,3.3961,3.3958,3.397,3.3974,3.3989,3.4017,3.3983,3.3983,3.3991,3.4055,3.406,3.4066,3.4016,3.4017,3.4017,3.4054,0,3.3796,3.3834,3.384,3.3874,3.3894,3.3895,3.3914,3.3928,3.3937,3.3955,3.3964,3.3984,3.3976,3.3984,3.3999,3.401,3.403,3.4007,3.4036,3.4037,3.4034,3.4072,3.4077,3.4111,3.4059,3.406,3.406,0,3.3835,3.3852,3.3889,3.3908,3.3916,3.3933,3.3955,3.3971,3.3989,3.3994,3.4008,3.401,3.4034,3.4022,3.4056,3.404,3.4052,3.4059,3.4061,3.4066,3.4052,3.408,3.4122,3.4128,3.4068,3.4067,3.4067,0,3.3855,3.3887,3.3914,3.3923,3.3946,3.3958,3.3968,3.3985,3.3998,3.4017,3.4026,3.4046,3.4058,3.4075,3.4083,3.4073,3.4118,3.4105,3.4124,3.4124,3.4135,3.4135,3.4182,3.4139,3.4139,3.4139,3.4139,0,3.3888,3.3911,3.3924,3.394,3.3967,3.3974,3.3999,3.4009,3.4024,3.4044,3.4045,3.4063,3.4072,3.4092,3.4099,3.4128,3.4132,3.4138,3.414,3.414,3.4139,3.4149,3.4148,3.414,3.414,3.4139,3.4139,0,3.3915,3.3925,3.3954,3.3974,3.3979,3.3998,3.4015,3.4032,3.404,3.4065,3.4071,3.4085,3.4109,3.4118,3.4147,3.4152,3.4186,3.4184,3.418,3.4181,3.4201,3.42,3.4259,3.4268,3.4216,3.4216,3.4217,0,3.3937,3.3954,3.3976,3.399,3.4,3.4021,3.4035,3.4043,3.4058,3.408,3.4095,3.4119,3.4138,3.4177,3.419,3.4212,3.4213,3.4232,3.4217,3.4217,3.4217,3.4217,3.422,3.4236,3.4236,3.4237,3.4237,0,3.3974,3.3979,3.3999,3.4021,3.4038,3.4056,3.4073,3.4084,3.4095,3.4111,3.4136,3.4151,3.4182,3.4206,3.423,3.4241,3.4242,3.4241,3.4248,3.4249,3.4247,3.4251,3.4191,3.4241,3.424,3.424,3.424,3.424,3.4001,3.4018,3.4037,3.406,3.4074,3.4091,3.4109,3.412,3.4141,3.4166,3.4169,3.4197,3.4216,3.4248,3.426,3.4282,3.4278,3.4286,3.4288,3.4291,3.4294,3.4241,3.4286,3.4286,3.4286,3.4286,3.4286,0,3.4042,3.4054,3.4075,3.41,3.4119,3.4117,3.4137,3.4153,3.4177,3.4194,3.4214,3.4244,3.4268,3.4284,3.4308,3.4324,3.4325,3.433,3.433,3.4334,3.4295,3.4289,3.4329,3.4329,3.4329,3.4329,3.4329,3.4329,3.4065,3.4094,3.4101,3.4139,3.4151,3.4178,3.419,3.4206,3.4221,3.4254,3.4275,3.4284,3.4302,3.4328,3.4351,3.4355,3.4365,3.4372,3.4376,3.434,3.4336,3.4332,3.4326,3.4373,3.4373,3.4413,3.4413,3.4413]}]]